Location: ????????
(37.6846°N, 24.0673°E)
Time: 15:00:53
(UTC+00:00)

Okean 2 Rocket - Pass Details

Date: 14 July 2020
Orbit: 617 x 641 km, 82.5° (Epoch: 04 August)

Event Time Altitude Azimuth Distance (km) Brightness Sun altitude
Exits shadow 02:09:15 - 177° (S) 2,796 6.1 -11.4°
Reaches altitude 10° 02:11:17 10° 173° (S) 1,974 5.3 -11.1°
Maximum altitude 02:15:35 60° 94° (E) 711 3.6 -10.4°
Drops below altitude 10° 02:19:55 10° 15° (NNE) 1,989 6.5 -9.8°
Sets 02:22:10 0° 12° (NNE) 2,901 7.3 -9.4°
